{"data":{"norad_id":59667,"epoch":"2026-05-24T20:28:33.186432Z","epoch_age_seconds":91206,"freshness":"FRESH","line1":"1 59667U 24084P   26144.85316188  .00001661  00000+0  69844-4 0  9996","line2":"2 59667  42.9996 328.0099 0001562 269.1025  90.9648 15.27585927116065","mean_motion":15.27585927,"eccentricity":0.0001562,"inclination_deg":42.9996,"raan_deg":328.0099,"arg_perigee_deg":269.1025,"mean_anomaly_deg":90.9648,"bstar":6.9844e-5,"rev_number":11606,"period_min":94.266382960728,"perigee_km":481.95963403077,"apogee_km":484.10306302285,"semimajor_km":6861.1683485268,"source":"CELESTRAK","updated_at":"2026-05-25T13:38:19.020166Z"}}